Mount Shasta, CA

6:10 AM PDT on September 19, 2017 (GMT -0700)
Mount Shasta

Weather History for KMHS - October, 2014

Change the Weather History Date:

Sunday, October 26, 2014

  Actual Average Record
Temperature  
Mean Temperature 43 °F 48 °F  
Max Temperature 55 °F 61 °F 80 °F (1944)
Min Temperature 31 °F 34 °F 25 °F (1954)
Degree Days  
Heating Degree Days 22 17  
Month to date heating degree days 253 334  
Since 1 July heating degree days 333 571  
Cooling Degree Days 0 0  
Month to date cooling degree days 0 0  
Year to date cooling degree days 547 287  
Moisture  
Dew Point 35 °F    
Average Humidity 83    
Maximum Humidity 100    
Minimum Humidity 54    
Precipitation  
Precipitation 0.00 in 0.11 in 2.57 in (1950)
Month to date precipitation 3.73 1.66  
Year to date precipitation 18.57 29.66  
Sea Level Pressure  
Sea Level Pressure 30.20 in    
Wind  
Wind Speed 2 mph (NW)    
Max Wind Speed 9 mph    
Max Gust Speed 15 mph    
Visibility 9 miles    
Events      
T = Trace of Precipitation, MM = Missing Value Source: NWS Daily Summary

Daily Weather History Graph

Daily Weather History Graph

Search for Another Location

Airport or City:

Trip Planner

Search our weather history database for the weather conditions in past years. The results will help you decide how hot, cold, wet, or windy it might be!

Date:

Astronomy

Oct. 26, 2014 Rise Set
Actual Time 7:33 AM PDT 6:12 PM PDT
Civil Twilight 7:05 AM PDT 6:40 PM PDT
Nautical Twilight 6:32 AM PDT 7:12 PM PDT
Astronomical Twilight 6:00 AM PDT 7:44 PM PDT
Moon 10:18 AM PDT (10/26) 8:27 PM PDT (10/26)
Length of Visible Light 11h 35m
Length of Day
10h 38m
Waxing Crescent, 9% of the Moon is Illuminated
Oct 26
Waxing Crescent
Oct 30
First Quarter
Nov 6
Full
Nov 14
Last Quarter
Nov 22
New

Hourly Weather History & Observations

Time (PDT) Temp. Windchill Dew Point Humidity Pressure Visibility Wind Dir Wind Speed Gust Speed Precip Events Conditions
12:09 AM 41.0 °F - 39.0 °F 93% 30.07 in 1.5 mi Calm Calm - N/A   Overcast
12:12 AM 41.0 °F - 39.9 °F 96% 30.07 in 0.8 mi Calm Calm - N/A   Overcast
12:21 AM 39.0 °F - 39.0 °F 100% 30.08 in 1.5 mi Calm Calm - N/A   Overcast
12:23 AM 39.0 °F - 37.9 °F 96% 30.07 in 4.0 mi Calm Calm - N/A   Overcast
12:56 AM 37.0 °F - 35.1 °F 93% 30.15 in 10.0 mi Calm Calm - N/A   Scattered Clouds
1:06 AM 37.0 °F - 35.1 °F 93% 30.09 in 8.0 mi Calm Calm - N/A   Mostly Cloudy
1:49 AM 34.0 °F - 32.0 °F 92% 30.10 in 9.0 mi Calm Calm - N/A   Scattered Clouds
1:56 AM 34.0 °F - 32.0 °F 92% 30.18 in 10.0 mi Calm Calm - N/A   Partly Cloudy
2:56 AM 34.0 °F - 32.0 °F 92% 30.19 in 10.0 mi Calm Calm - N/A   Clear
3:56 AM 32.0 °F 28.7 °F 30.9 °F 96% 30.20 in 10.0 mi NNW 3.5 mph - N/A   Clear
4:56 AM 32.0 °F 27.5 °F 30.9 °F 96% 30.21 in 10.0 mi NE 4.6 mph - N/A   Clear
5:56 AM 30.9 °F - 30.0 °F 96% 30.23 in 10.0 mi Calm Calm - N/A   Clear
6:56 AM 30.9 °F - 28.9 °F 92% 30.25 in 8.0 mi Calm Calm - N/A   Clear
7:56 AM 30.9 °F - 28.9 °F 92% 30.25 in 8.0 mi Calm Calm - N/A   Clear
8:56 AM 34.0 °F - 30.9 °F 89% 30.27 in 9.0 mi Calm Calm - N/A   Partly Cloudy
9:56 AM 37.9 °F - 35.1 °F 89% 30.27 in 10.0 mi Calm Calm - N/A   Clear
10:56 AM 45.0 °F - 37.9 °F 76% 30.25 in 10.0 mi Calm Calm - N/A   Clear
11:56 AM 50.0 °F - 39.9 °F 68% 30.23 in 10.0 mi West 5.8 mph - N/A   Clear
12:56 PM 52.0 °F - 36.0 °F 54% 30.23 in 10.0 mi Variable 5.8 mph - N/A   Clear
1:56 PM 54.0 °F - 37.0 °F 53% 30.23 in 10.0 mi Variable 5.8 mph - N/A   Mostly Cloudy
2:56 PM 51.1 °F - 35.1 °F 54% 30.23 in 10.0 mi Variable 5.8 mph - N/A   Overcast
3:56 PM 53.1 °F - 37.0 °F 55% 30.22 in 10.0 mi Calm Calm - N/A   Partly Cloudy
4:56 PM 48.0 °F - 36.0 °F 63% 30.23 in 10.0 mi West 4.6 mph - N/A   Clear
5:56 PM 45.0 °F 43.5 °F 37.0 °F 74% 30.24 in 10.0 mi Variable 3.5 mph - N/A   Clear
6:56 PM 44.1 °F - 37.0 °F 76% 30.25 in 10.0 mi Calm Calm - N/A   Clear
7:56 PM 41.0 °F - 36.0 °F 82% 30.26 in 9.0 mi Calm Calm - N/A   Clear
8:56 PM 41.0 °F - 36.0 °F 82% 30.25 in 10.0 mi Calm Calm - N/A   Clear
9:56 PM 42.1 °F - 37.0 °F 82% 30.25 in 10.0 mi Calm Calm - N/A   Clear
10:56 PM 39.9 °F - 36.0 °F 86% 30.24 in 10.0 mi Calm Calm - N/A   Clear
11:56 PM 39.9 °F - 36.0 °F 86% 30.22 in 10.0 mi Calm Calm - N/A   Clear